Time,TemperatureF,DewpointF,PressureIn,WindDirection,WindDirectionDegrees,WindSpeedMPH,WindSpeedGustMPH,Humidity,HourlyPrecipIn,Conditions,Clouds,dailyrainin,SoftwareType,DateUTC
2013-04-18 00:00:00,68.8,59.0,30.14,South,178,0.0,1.0,71,0.00,,,0.00,Wunderground v.1.15,2013-04-18 04:00:00,
2013-04-18 00:05:00,68.6,59.2,30.14,South,178,0.0,1.0,72,0.00,,,0.00,Wunderground v.1.15,2013-04-18 04:05:00,
2013-04-18 00:10:00,68.5,59.1,30.14,South,178,0.0,1.0,72,0.00,,,0.00,Wunderground v.1.15,2013-04-18 04:10:00,
2013-04-18 00:15:00,68.3,59.3,30.14,South,178,0.0,1.0,73,0.00,,,0.00,Wunderground v.1.15,2013-04-18 04:15:00,
2013-04-18 00:20:00,68.1,59.1,30.14,South,178,0.0,1.0,73,0.00,,,0.00,Wunderground v.1.15,2013-04-18 04:20:00,
2013-04-18 00:25:00,67.9,59.3,30.14,South,178,0.0,1.0,74,0.00,,,0.00,Wunderground v.1.15,2013-04-18 04:25:00,
2013-04-18 00:30:00,67.7,59.1,30.13,South,178,0.0,1.0,74,0.00,,,0.00,Wunderground v.1.15,2013-04-18 04:30:00,
2013-04-18 00:35:00,67.6,59.0,30.13,South,178,0.0,1.0,74,0.00,,,0.00,Wunderground v.1.15,2013-04-18 04:35:00,
2013-04-18 00:40:00,67.4,59.2,30.14,South,178,0.0,1.0,75,0.00,,,0.00,Wunderground v.1.15,2013-04-18 04:40:00,
2013-04-18 00:50:00,67.0,59.2,30.14,South,178,0.0,1.0,76,0.00,,,0.00,Wunderground v.1.15,2013-04-18 04:50:00,
2013-04-18 00:55:00,66.8,59.0,30.13,South,178,0.0,1.0,76,0.00,,,0.00,Wunderground v.1.15,2013-04-18 04:55:00,
2013-04-18 01:00:00,66.7,59.3,30.13,South,178,0.0,1.0,77,0.00,,,0.00,Wunderground v.1.15,2013-04-18 05:00:00,
2013-04-18 01:05:00,66.5,59.1,30.13,South,178,0.0,1.0,77,0.00,,,0.00,Wunderground v.1.15,2013-04-18 05:05:00,
2013-04-18 01:10:00,66.3,58.9,30.13,South,178,0.0,1.0,77,0.00,,,0.00,Wunderground v.1.15,2013-04-18 05:10:00,
2013-04-18 01:15:00,66.2,59.1,30.13,South,178,0.0,1.0,78,0.00,,,0.00,Wunderground v.1.15,2013-04-18 05:15:00,
2013-04-18 01:20:00,66.0,59.3,30.13,South,178,0.0,1.0,79,0.00,,,0.00,Wunderground v.1.15,2013-04-18 05:20:00,
2013-04-18 01:25:00,65.9,59.2,30.12,South,178,0.0,1.0,79,0.00,,,0.00,Wunderground v.1.15,2013-04-18 05:25:00,
2013-04-18 01:30:00,65.7,59.0,30.12,South,178,0.0,1.0,79,0.00,,,0.00,Wunderground v.1.15,2013-04-18 05:30:00,
2013-04-18 01:35:00,65.5,59.2,30.12,South,178,0.0,1.0,80,0.00,,,0.00,Wunderground v.1.15,2013-04-18 05:35:00,
2013-04-18 01:40:00,65.4,59.1,30.12,South,178,0.0,1.0,80,0.00,,,0.00,Wunderground v.1.15,2013-04-18 05:40:00,
2013-04-18 01:45:00,65.2,59.2,30.12,South,178,0.0,1.0,81,0.00,,,0.00,Wunderground v.1.15,2013-04-18 05:45:00,
2013-04-18 01:55:00,64.9,58.9,30.12,South,178,0.0,1.0,81,0.00,,,0.00,Wunderground v.1.15,2013-04-18 05:55:00,
2013-04-18 02:00:00,64.8,58.8,30.12,South,178,0.0,1.0,81,0.00,,,0.00,Wunderground v.1.15,2013-04-18 06:00:00,
2013-04-18 02:05:00,64.6,58.6,30.12,South,178,0.0,1.0,81,0.00,,,0.00,Wunderground v.1.15,2013-04-18 06:05:00,
2013-04-18 02:10:00,64.4,58.8,30.11,South,178,0.0,1.0,82,0.00,,,0.00,Wunderground v.1.15,2013-04-18 06:10:00,
2013-04-18 02:15:00,64.3,58.7,30.11,South,178,0.0,1.0,82,0.00,,,0.00,Wunderground v.1.15,2013-04-18 06:15:00,
2013-04-18 02:20:00,64.1,58.8,30.11,South,178,0.0,1.0,83,0.00,,,0.00,Wunderground v.1.15,2013-04-18 06:20:00,
2013-04-18 02:25:00,64.0,58.7,30.11,South,178,0.0,1.0,83,0.00,,,0.00,Wunderground v.1.15,2013-04-18 06:25:00,
2013-04-18 02:30:00,63.9,59.0,30.11,South,178,0.0,1.0,84,0.00,,,0.00,Wunderground v.1.15,2013-04-18 06:30:00,
2013-04-18 02:40:00,63.6,58.7,30.11,South,178,0.0,1.0,84,0.00,,,0.00,Wunderground v.1.15,2013-04-18 06:40:00,
2013-04-18 02:45:00,63.5,58.6,30.11,South,178,0.0,1.0,84,0.00,,,0.00,Wunderground v.1.15,2013-04-18 06:45:00,
2013-04-18 02:55:00,63.2,58.6,30.11,South,178,0.0,1.0,85,0.00,,,0.00,Wunderground v.1.15,2013-04-18 06:55:00,
2013-04-18 03:00:00,63.1,58.5,30.11,South,178,0.0,1.0,85,0.00,,,0.00,Wunderground v.1.15,2013-04-18 07:00:00,
2013-04-18 03:05:00,63.0,58.7,30.11,South,178,0.0,1.0,86,0.00,,,0.00,Wunderground v.1.15,2013-04-18 07:05:00,
2013-04-18 03:10:00,62.9,58.6,30.11,South,178,0.0,1.0,86,0.00,,,0.00,Wunderground v.1.15,2013-04-18 07:10:00,
2013-04-18 03:15:00,62.8,58.5,30.10,South,178,0.0,1.0,86,0.00,,,0.00,Wunderground v.1.15,2013-04-18 07:15:00,
2013-04-18 03:20:00,62.6,58.4,30.11,South,178,0.0,1.0,86,0.00,,,0.00,Wunderground v.1.15,2013-04-18 07:20:00,
2013-04-18 03:30:00,62.4,58.2,30.10,South,178,0.0,1.0,86,0.00,,,0.00,Wunderground v.1.15,2013-04-18 07:30:00,
2013-04-18 03:40:00,62.1,58.2,30.11,South,178,0.0,1.0,87,0.00,,,0.00,Wunderground v.1.15,2013-04-18 07:40:00,
2013-04-18 03:45:00,62.1,58.2,30.11,South,178,0.0,1.0,87,0.00,,,0.00,Wunderground v.1.15,2013-04-18 07:45:00,
2013-04-18 03:50:00,62.0,58.4,30.11,South,178,0.0,1.0,88,0.00,,,0.00,Wunderground v.1.15,2013-04-18 07:50:00,
2013-04-18 04:00:00,61.8,58.2,30.12,South,178,0.0,1.0,88,0.00,,,0.00,Wunderground v.1.15,2013-04-18 08:00:00,
2013-04-18 04:05:00,61.7,58.4,30.12,South,178,0.0,1.0,89,0.00,,,0.00,Wunderground v.1.15,2013-04-18 08:05:00,
2013-04-18 04:10:00,61.7,58.4,30.12,South,178,0.0,1.0,89,0.00,,,0.00,Wunderground v.1.15,2013-04-18 08:10:00,
2013-04-18 04:15:00,61.6,58.3,30.12,South,178,0.0,1.0,89,0.00,,,0.00,Wunderground v.1.15,2013-04-18 08:15:00,
2013-04-18 04:20:00,61.6,58.6,30.12,South,178,0.0,1.0,90,0.00,,,0.00,Wunderground v.1.15,2013-04-18 08:20:00,
2013-04-18 04:30:00,61.5,58.5,30.12,South,178,0.0,1.0,90,0.00,,,0.00,Wunderground v.1.15,2013-04-18 08:30:00,
2013-04-18 04:40:00,61.4,58.4,30.12,South,178,0.0,1.0,90,0.00,,,0.00,Wunderground v.1.15,2013-04-18 08:40:00,
2013-04-18 04:45:00,61.3,58.3,30.12,South,178,0.0,1.0,90,0.00,,,0.00,Wunderground v.1.15,2013-04-18 08:45:00,
2013-04-18 04:50:00,61.2,58.2,30.12,South,178,0.0,1.0,90,0.00,,,0.00,Wunderground v.1.15,2013-04-18 08:50:00,
2013-04-18 04:55:00,61.2,58.2,30.12,South,178,0.0,1.0,90,0.00,,,0.00,Wunderground v.1.15,2013-04-18 08:55:00,
2013-04-18 05:05:00,61.0,58.4,30.12,South,178,0.0,1.0,91,0.00,,,0.00,Wunderground v.1.15,2013-04-18 09:05:00,
2013-04-18 05:10:00,61.0,58.4,30.12,South,178,0.0,1.0,91,0.00,,,0.00,Wunderground v.1.15,2013-04-18 09:10:00,
2013-04-18 05:15:00,60.9,58.3,30.12,South,178,0.0,1.0,91,0.00,,,0.00,Wunderground v.1.15,2013-04-18 09:15:00,
2013-04-18 05:20:00,60.8,58.2,30.12,South,178,0.0,1.0,91,0.00,,,0.00,Wunderground v.1.15,2013-04-18 09:20:00,
2013-04-18 05:25:00,60.8,58.2,30.12,South,178,0.0,1.0,91,0.00,,,0.00,Wunderground v.1.15,2013-04-18 09:25:00,
2013-04-18 05:35:00,60.7,58.1,30.12,South,178,0.0,1.0,91,0.00,,,0.00,Wunderground v.1.15,2013-04-18 09:35:00,
2013-04-18 05:40:00,60.7,58.1,30.12,South,178,0.0,1.0,91,0.00,,,0.00,Wunderground v.1.15,2013-04-18 09:40:00,
2013-04-18 05:45:00,60.6,58.3,30.12,South,178,0.0,1.0,92,0.00,,,0.00,Wunderground v.1.15,2013-04-18 09:45:00,
2013-04-18 05:50:00,60.6,58.3,30.12,South,178,0.0,1.0,92,0.00,,,0.00,Wunderground v.1.15,2013-04-18 09:50:00,
2013-04-18 05:55:00,60.5,58.2,30.12,South,178,0.0,1.0,92,0.00,,,0.00,Wunderground v.1.15,2013-04-18 09:55:00,
2013-04-18 06:05:00,60.4,58.1,30.12,South,178,0.0,1.0,92,0.00,,,0.00,Wunderground v.1.15,2013-04-18 10:05:00,
2013-04-18 06:10:00,60.4,58.1,30.12,South,178,0.0,1.0,92,0.00,,,0.00,Wunderground v.1.15,2013-04-18 10:10:00,
2013-04-18 06:15:00,60.3,58.0,30.12,South,178,0.0,1.0,92,0.00,,,0.00,Wunderground v.1.15,2013-04-18 10:15:00,
2013-04-18 06:20:00,60.2,57.9,30.13,South,178,0.0,1.0,92,0.00,,,0.00,Wunderground v.1.15,2013-04-18 10:20:00,
2013-04-18 06:25:00,60.2,58.2,30.13,South,178,0.0,1.0,93,0.00,,,0.00,Wunderground v.1.15,2013-04-18 10:25:00,
2013-04-18 06:35:00,60.1,58.1,30.13,South,178,0.0,1.0,93,0.00,,,0.00,Wunderground v.1.15,2013-04-18 10:35:00,
2013-04-18 06:40:00,60.1,58.1,30.13,South,178,0.0,1.0,93,0.00,,,0.00,Wunderground v.1.15,2013-04-18 10:40:00,
2013-04-18 06:45:00,60.1,58.1,30.13,South,178,0.0,1.0,93,0.00,,,0.00,Wunderground v.1.15,2013-04-18 10:45:00,
2013-04-18 06:50:00,60.0,58.0,30.14,South,178,0.0,1.0,93,0.00,,,0.00,Wunderground v.1.15,2013-04-18 10:50:00,
2013-04-18 06:55:00,60.0,58.0,30.14,South,178,0.0,1.0,93,0.00,,,0.00,Wunderground v.1.15,2013-04-18 10:55:00,
2013-04-18 07:00:00,60.0,58.0,30.14,South,178,0.0,1.0,93,0.00,,,0.00,Wunderground v.1.15,2013-04-18 11:00:00,
2013-04-18 07:10:00,59.9,57.9,30.14,South,178,0.0,1.0,93,0.00,,,0.00,Wunderground v.1.15,2013-04-18 11:10:00,
2013-04-18 07:15:00,59.9,58.2,30.14,South,178,0.0,1.0,94,0.00,,,0.00,Wunderground v.1.15,2013-04-18 11:15:00,
2013-04-18 07:20:00,60.0,58.3,30.14,South,178,0.0,1.0,94,0.00,,,0.00,Wunderground v.1.15,2013-04-18 11:20:00,
2013-04-18 07:25:00,60.1,58.4,30.14,South,178,0.0,1.0,94,0.00,,,0.00,Wunderground v.1.15,2013-04-18 11:25:00,
2013-04-18 07:30:00,60.5,59.1,30.15,South,178,0.0,1.0,95,0.00,,,0.00,Wunderground v.1.15,2013-04-18 11:30:00,
2013-04-18 07:40:00,61.0,59.9,30.15,South,178,0.0,1.0,96,0.00,,,0.00,Wunderground v.1.15,2013-04-18 11:40:00,
2013-04-18 07:45:00,61.3,60.2,30.15,South,178,0.0,1.0,96,0.00,,,0.00,Wunderground v.1.15,2013-04-18 11:45:00,
2013-04-18 07:50:00,61.6,60.4,30.15,South,178,0.0,1.0,96,0.00,,,0.00,Wunderground v.1.15,2013-04-18 11:50:00,
2013-04-18 07:55:00,61.8,60.6,30.15,South,178,0.0,1.0,96,0.00,,,0.00,Wunderground v.1.15,2013-04-18 11:55:00,
2013-04-18 08:00:00,61.9,60.7,30.15,South,178,0.0,1.0,96,0.00,,,0.00,Wunderground v.1.15,2013-04-18 12:00:00,
2013-04-18 08:10:00,62.0,60.8,30.15,South,178,0.0,1.0,96,0.00,,,0.00,Wunderground v.1.15,2013-04-18 12:10:00,
2013-04-18 08:15:00,62.1,60.9,30.15,South,178,0.0,1.0,96,0.00,,,0.00,Wunderground v.1.15,2013-04-18 12:15:00,
2013-04-18 08:20:00,62.3,61.1,30.16,South,178,0.0,1.0,96,0.00,,,0.00,Wunderground v.1.15,2013-04-18 12:20:00,
2013-04-18 08:25:00,62.9,61.7,30.16,South,178,0.0,1.0,96,0.00,,,0.00,Wunderground v.1.15,2013-04-18 12:25:00,
2013-04-18 08:30:00,63.9,62.4,30.15,South,178,0.0,1.0,95,0.00,,,0.00,Wunderground v.1.15,2013-04-18 12:30:00,
2013-04-18 08:40:00,65.7,63.0,30.15,South,178,0.0,1.0,91,0.00,,,0.00,Wunderground v.1.15,2013-04-18 12:40:00,
2013-04-18 08:45:00,66.2,62.9,30.16,South,178,0.0,1.0,89,0.00,,,0.00,Wunderground v.1.15,2013-04-18 12:45:00,
2013-04-18 08:50:00,66.7,63.0,30.16,South,178,0.0,1.0,88,0.00,,,0.00,Wunderground v.1.15,2013-04-18 12:50:00,
2013-04-18 08:55:00,66.8,62.5,30.16,South,178,0.0,1.0,86,0.00,,,0.00,Wunderground v.1.15,2013-04-18 12:55:00,
2013-04-18 09:00:00,66.8,62.5,30.16,South,178,0.0,1.0,86,0.00,,,0.00,Wunderground v.1.15,2013-04-18 13:00:00,
2013-04-18 09:05:00,67.1,62.8,30.16,South,178,0.0,1.0,86,0.00,,,0.00,Wunderground v.1.15,2013-04-18 13:05:00,
2013-04-18 09:15:00,67.9,63.2,30.16,South,178,0.0,1.0,85,0.00,,,0.00,Wunderground v.1.15,2013-04-18 13:15:00,
2013-04-18 09:20:00,68.4,63.0,30.16,South,178,0.0,1.0,83,0.00,,,0.00,Wunderground v.1.15,2013-04-18 13:20:00,
2013-04-18 09:25:00,68.9,63.2,30.16,SSW,200,0.0,1.0,82,0.00,,,0.00,Wunderground v.1.15,2013-04-18 13:25:00,
2013-04-18 09:30:00,69.4,63.3,30.16,SSW,200,0.0,1.0,81,0.00,,,0.00,Wunderground v.1.15,2013-04-18 13:30:00,
2013-04-18 09:35:00,69.4,63.3,30.16,SSW,200,0.0,1.0,81,0.00,,,0.00,Wunderground v.1.15,2013-04-18 13:35:00,
2013-04-18 09:40:00,69.4,63.0,30.16,SSW,200,0.0,1.0,80,0.00,,,0.00,Wunderground v.1.15,2013-04-18 13:40:00,
2013-04-18 09:45:00,69.4,63.0,30.16,SSW,202,0.0,1.0,80,0.00,,,0.00,Wunderground v.1.15,2013-04-18 13:45:00,
2013-04-18 09:50:00,69.4,63.0,30.17,SSW,202,0.0,1.0,80,0.00,,,0.00,Wunderground v.1.15,2013-04-18 13:50:00,
2013-04-18 09:55:00,69.2,63.1,30.17,SSW,202,0.0,1.0,81,0.00,,,0.00,Wunderground v.1.15,2013-04-18 13:55:00,
2013-04-18 10:00:00,69.2,63.1,30.17,SSW,202,0.0,1.0,81,0.00,,,0.00,Wunderground v.1.15,2013-04-18 14:00:00,
2013-04-18 10:05:00,69.2,63.1,30.17,SSW,202,0.0,1.0,81,0.00,,,0.00,Wunderground v.1.15,2013-04-18 14:05:00,
2013-04-18 10:15:00,69.4,63.3,30.17,SSW,202,0.0,1.0,81,0.00,,,0.00,Wunderground v.1.15,2013-04-18 14:15:00,
2013-04-18 10:20:00,70.1,63.3,30.16,SSW,202,0.0,1.0,79,0.00,,,0.00,Wunderground v.1.15,2013-04-18 14:20:00,
2013-04-18 10:25:00,71.2,64.0,30.16,SSE,158,0.0,1.0,78,0.00,,,0.00,Wunderground v.1.15,2013-04-18 14:25:00,
2013-04-18 10:30:00,72.0,64.0,30.16,SSE,157,0.0,1.0,76,0.00,,,0.00,Wunderground v.1.15,2013-04-18 14:30:00,
2013-04-18 10:35:00,71.9,63.5,30.16,South,191,0.0,1.0,75,0.00,,,0.00,Wunderground v.1.15,2013-04-18 14:35:00,
2013-04-18 10:40:00,71.8,63.4,30.16,SW,221,0.0,1.0,75,0.00,,,0.00,Wunderground v.1.15,2013-04-18 14:40:00,
2013-04-18 10:45:00,71.8,63.8,30.16,SSW,193,0.0,1.0,76,0.00,,,0.00,Wunderground v.1.15,2013-04-18 14:45:00,
2013-04-18 10:50:00,71.9,63.2,30.16,SSW,202,0.0,1.0,74,0.00,,,0.00,Wunderground v.1.15,2013-04-18 14:50:00,
2013-04-18 10:55:00,71.8,63.4,30.16,South,181,0.0,1.0,75,0.00,,,0.00,Wunderground v.1.15,2013-04-18 14:55:00,
2013-04-18 11:00:00,71.4,63.4,30.16,SSW,194,0.0,1.0,76,0.00,,,0.00,Wunderground v.1.15,2013-04-18 15:00:00,
2013-04-18 11:05:00,71.5,63.5,30.16,South,184,0.0,1.0,76,0.00,,,0.00,Wunderground v.1.15,2013-04-18 15:05:00,
2013-04-18 11:10:00,72.4,64.0,30.16,South,185,0.0,1.0,75,0.00,,,0.00,Wunderground v.1.15,2013-04-18 15:10:00,
2013-04-18 11:20:00,72.1,63.7,30.16,SSW,198,0.0,1.0,75,0.00,,,0.00,Wunderground v.1.15,2013-04-18 15:20:00,
2013-04-18 11:25:00,72.3,63.9,30.16,South,183,0.0,1.0,75,0.00,,,0.00,Wunderground v.1.15,2013-04-18 15:25:00,
2013-04-18 11:35:00,72.5,63.4,30.16,South,173,0.0,2.0,73,0.00,,,0.00,Wunderground v.1.15,2013-04-18 15:35:00,
2013-04-18 11:40:00,72.8,64.4,30.16,South,187,0.0,1.0,75,0.00,,,0.00,Wunderground v.1.15,2013-04-18 15:40:00,
2013-04-18 11:45:00,73.4,63.8,30.16,SE,146,0.0,1.0,72,0.00,,,0.00,Wunderground v.1.15,2013-04-18 15:45:00,
2013-04-18 11:50:00,73.4,63.4,30.15,South,179,0.0,1.0,71,0.00,,,0.00,Wunderground v.1.15,2013-04-18 15:50:00,
2013-04-18 11:55:00,73.7,64.5,30.15,South,179,0.0,1.0,73,0.00,,,0.00,Wunderground v.1.15,2013-04-18 15:55:00,
2013-04-18 12:00:00,74.2,63.8,30.15,WSW,240,0.0,1.0,70,0.00,,,0.00,Wunderground v.1.15,2013-04-18 16:00:00,
2013-04-18 12:05:00,74.0,63.2,30.15,SSW,204,0.0,1.0,69,0.00,,,0.00,Wunderground v.1.15,2013-04-18 16:05:00,
2013-04-18 12:10:00,73.7,63.3,30.15,SSW,204,0.0,1.0,70,0.00,,,0.00,Wunderground v.1.15,2013-04-18 16:10:00,
2013-04-18 12:20:00,73.3,63.3,30.15,SSW,196,0.0,1.0,71,0.00,,,0.00,Wunderground v.1.15,2013-04-18 16:20:00,
2013-04-18 12:30:00,73.7,63.3,30.14,SSW,196,0.0,1.0,70,0.00,,,0.00,Wunderground v.1.15,2013-04-18 16:30:00,
2013-04-18 12:35:00,73.7,63.7,30.14,SSW,195,0.0,1.0,71,0.00,,,0.00,Wunderground v.1.15,2013-04-18 16:35:00,
2013-04-18 12:40:00,73.9,63.9,30.14,SSW,196,0.0,1.0,71,0.00,,,0.00,Wunderground v.1.15,2013-04-18 16:40:00,
2013-04-18 12:45:00,74.2,64.2,30.14,SSW,196,0.0,1.0,71,0.00,,,0.00,Wunderground v.1.15,2013-04-18 16:45:00,
2013-04-18 12:50:00,74.6,63.8,30.13,SSW,198,0.0,2.0,69,0.00,,,0.00,Wunderground v.1.15,2013-04-18 16:50:00,
2013-04-18 12:55:00,74.6,63.8,30.13,SSW,198,0.0,2.0,69,0.00,,,0.00,Wunderground v.1.15,2013-04-18 16:55:00,
2013-04-18 13:00:00,75.0,64.1,30.13,West,260,0.0,1.0,69,0.00,,,0.00,Wunderground v.1.15,2013-04-18 17:00:00,
2013-04-18 13:05:00,75.3,64.0,30.13,SW,221,0.0,1.0,68,0.00,,,0.00,Wunderground v.1.15,2013-04-18 17:05:00,
2013-04-18 13:10:00,75.5,63.8,30.13,SW,219,0.0,1.0,67,0.00,,,0.00,Wunderground v.1.15,2013-04-18 17:10:00,
2013-04-18 13:15:00,75.7,64.4,30.12,East,89,0.0,1.0,68,0.00,,,0.00,Wunderground v.1.15,2013-04-18 17:15:00,
2013-04-18 13:25:00,77.5,65.2,30.11,South,184,0.0,1.0,66,0.00,,,0.00,Wunderground v.1.15,2013-04-18 17:25:00,
2013-04-18 13:30:00,78.7,65.5,30.11,South,182,0.0,1.0,64,0.00,,,0.00,Wunderground v.1.15,2013-04-18 17:30:00,
2013-04-18 13:35:00,78.6,64.9,30.11,South,182,0.0,1.0,63,0.00,,,0.00,Wunderground v.1.15,2013-04-18 17:35:00,
2013-04-18 13:40:00,77.4,64.3,30.11,SSE,164,0.0,1.0,64,0.00,,,0.00,Wunderground v.1.15,2013-04-18 17:40:00,
2013-04-18 13:45:00,77.6,65.3,30.11,SSE,164,0.0,1.0,66,0.00,,,0.00,Wunderground v.1.15,2013-04-18 17:45:00,
2013-04-18 13:50:00,77.6,64.9,30.10,East,88,0.0,1.0,65,0.00,,,0.00,Wunderground v.1.15,2013-04-18 17:50:00,
2013-04-18 13:55:00,79.0,65.3,30.10,SE,141,0.0,1.0,63,0.00,,,0.00,Wunderground v.1.15,2013-04-18 17:55:00,
2013-04-18 14:00:00,79.6,63.0,30.10,South,188,0.0,1.0,57,0.00,,,0.00,Wunderground v.1.15,2013-04-18 18:00:00,
2013-04-18 14:05:00,80.2,63.6,30.10,NNE,17,0.0,1.0,57,0.00,,,0.00,Wunderground v.1.15,2013-04-18 18:05:00,
2013-04-18 14:10:00,80.0,62.9,30.10,SE,146,0.0,1.0,56,0.00,,,0.00,Wunderground v.1.15,2013-04-18 18:10:00,
2013-04-18 14:15:00,80.8,63.6,30.09,East,81,0.0,1.0,56,0.00,,,0.00,Wunderground v.1.15,2013-04-18 18:15:00,
2013-04-18 14:25:00,80.1,62.5,30.09,SSW,192,0.0,1.0,55,0.00,,,0.00,Wunderground v.1.15,2013-04-18 18:25:00,
2013-04-18 14:30:00,80.4,63.3,30.09,SE,136,0.0,1.0,56,0.00,,,0.00,Wunderground v.1.15,2013-04-18 18:30:00,
2013-04-18 14:35:00,80.3,63.2,30.09,SE,136,0.0,1.0,56,0.00,,,0.00,Wunderground v.1.15,2013-04-18 18:35:00,
2013-04-18 14:40:00,79.6,63.0,30.09,South,179,0.0,1.0,57,0.00,,,0.00,Wunderground v.1.15,2013-04-18 18:40:00,
2013-04-18 14:45:00,79.1,61.5,30.09,SSW,196,0.0,1.0,55,0.00,,,0.00,Wunderground v.1.15,2013-04-18 18:45:00,
2013-04-18 14:50:00,79.1,62.6,30.09,SSW,196,0.0,1.0,57,0.00,,,0.00,Wunderground v.1.15,2013-04-18 18:50:00,
2013-04-18 14:55:00,79.5,62.4,30.09,South,191,0.0,1.0,56,0.00,,,0.00,Wunderground v.1.15,2013-04-18 18:55:00,
2013-04-18 15:00:00,79.5,62.4,30.08,South,191,0.0,1.0,56,0.00,,,0.00,Wunderground v.1.15,2013-04-18 19:00:00,
2013-04-18 15:05:00,80.3,63.2,30.08,South,186,0.0,1.0,56,0.00,,,0.00,Wunderground v.1.15,2013-04-18 19:05:00,
2013-04-18 15:10:00,80.9,63.2,30.08,South,184,0.0,1.0,55,0.00,,,0.00,Wunderground v.1.15,2013-04-18 19:10:00,
2013-04-18 15:15:00,80.4,62.8,30.07,NE,51,0.0,1.0,55,0.00,,,0.00,Wunderground v.1.15,2013-04-18 19:15:00,
2013-04-18 15:20:00,80.0,63.4,30.07,SSE,150,0.0,1.0,57,0.00,,,0.00,Wunderground v.1.15,2013-04-18 19:20:00,
2013-04-18 15:30:00,79.1,63.1,30.07,SSE,148,0.0,1.0,58,0.00,,,0.00,Wunderground v.1.15,2013-04-18 19:30:00,
2013-04-18 15:35:00,79.3,63.7,30.07,ENE,58,0.0,1.0,59,0.00,,,0.00,Wunderground v.1.15,2013-04-18 19:35:00,
2013-04-18 15:40:00,79.2,63.6,30.07,South,188,0.0,1.0,59,0.00,,,0.00,Wunderground v.1.15,2013-04-18 19:40:00,
2013-04-18 15:45:00,79.8,64.7,30.07,WNW,284,0.0,1.0,60,0.00,,,0.00,Wunderground v.1.15,2013-04-18 19:45:00,
2013-04-18 15:50:00,80.0,64.4,30.06,SSW,194,0.0,2.0,59,0.00,,,0.00,Wunderground v.1.15,2013-04-18 19:50:00,
2013-04-18 16:00:00,79.3,64.2,30.06,SSW,195,0.0,1.0,60,0.00,,,0.00,Wunderground v.1.15,2013-04-18 20:00:00,
2013-04-18 16:10:00,80.5,64.4,30.05,East,88,0.0,1.0,58,0.00,,,0.00,Wunderground v.1.15,2013-04-18 20:10:00,
2013-04-18 16:15:00,79.8,64.7,30.06,SSW,192,0.0,1.0,60,0.00,,,0.00,Wunderground v.1.15,2013-04-18 20:15:00,
2013-04-18 16:20:00,80.7,64.5,30.05,South,189,0.0,1.0,58,0.00,,,0.00,Wunderground v.1.15,2013-04-18 20:20:00,
2013-04-18 16:30:00,79.3,64.7,30.05,SE,145,0.0,1.0,61,0.00,,,0.00,Wunderground v.1.15,2013-04-18 20:30:00,
2013-04-18 16:40:00,79.0,64.4,30.05,South,191,0.0,1.0,61,0.00,,,0.00,Wunderground v.1.15,2013-04-18 20:40:00,
2013-04-18 16:45:00,78.7,64.1,30.05,NW,320,0.0,1.0,61,0.00,,,0.00,Wunderground v.1.15,2013-04-18 20:45:00,
2013-04-18 16:50:00,78.4,63.8,30.04,South,187,0.0,1.0,61,0.00,,,0.00,Wunderground v.1.15,2013-04-18 20:50:00,
2013-04-18 16:55:00,79.2,64.1,30.04,South,171,0.0,1.0,60,0.00,,,0.00,Wunderground v.1.15,2013-04-18 20:55:00,
2013-04-18 17:05:00,79.3,63.2,30.04,South,175,0.0,1.0,58,0.00,,,0.00,Wunderground v.1.15,2013-04-18 21:05:00,
2013-04-18 17:10:00,79.3,63.2,30.04,South,171,0.0,1.0,58,0.00,,,0.00,Wunderground v.1.15,2013-04-18 21:10:00,
2013-04-18 17:15:00,79.4,63.8,30.03,SSE,159,0.0,1.0,59,0.00,,,0.00,Wunderground v.1.15,2013-04-18 21:15:00,
2013-04-18 17:20:00,78.7,63.6,30.03,SSE,167,0.0,1.0,60,0.00,,,0.00,Wunderground v.1.15,2013-04-18 21:20:00,
2013-04-18 17:25:00,78.0,63.5,30.04,South,178,0.0,1.0,61,0.00,,,0.00,Wunderground v.1.15,2013-04-18 21:25:00,
2013-04-18 17:35:00,77.4,63.4,30.04,South,172,0.0,1.0,62,0.00,,,0.00,Wunderground v.1.15,2013-04-18 21:35:00,
2013-04-18 17:40:00,77.3,63.3,30.04,SSE,151,0.0,1.0,62,0.00,,,0.00,Wunderground v.1.15,2013-04-18 21:40:00,
2013-04-18 17:45:00,77.2,62.7,30.03,South,184,0.0,1.0,61,0.00,,,0.00,Wunderground v.1.15,2013-04-18 21:45:00,
2013-04-18 17:50:00,77.1,62.6,30.03,South,190,0.0,3.0,61,0.00,,,0.00,Wunderground v.1.15,2013-04-18 21:50:00,
2013-04-18 17:55:00,77.1,62.1,30.03,NE,48,0.0,3.0,60,0.00,,,0.00,Wunderground v.1.15,2013-04-18 21:55:00,
2013-04-18 18:05:00,77.3,61.4,30.03,SSW,199,0.0,1.0,58,0.00,,,0.00,Wunderground v.1.15,2013-04-18 22:05:00,
2013-04-18 18:10:00,77.3,60.4,30.03,SSE,157,0.0,1.0,56,0.00,,,0.00,Wunderground v.1.15,2013-04-18 22:10:00,
2013-04-18 18:20:00,77.4,60.0,30.03,SSE,150,0.0,1.0,55,0.00,,,0.00,Wunderground v.1.15,2013-04-18 22:20:00,
2013-04-18 18:30:00,77.4,60.5,30.02,South,188,0.0,1.0,56,0.00,,,0.00,Wunderground v.1.15,2013-04-18 22:30:00,
2013-04-18 18:35:00,77.4,60.5,30.02,South,188,0.0,1.0,56,0.00,,,0.00,Wunderground v.1.15,2013-04-18 22:35:00,
2013-04-18 18:45:00,77.2,61.3,30.02,WSW,237,0.0,1.0,58,0.00,,,0.00,Wunderground v.1.15,2013-04-18 22:45:00,
2013-04-18 18:50:00,77.1,61.2,30.02,SW,236,0.0,1.0,58,0.00,,,0.00,Wunderground v.1.15,2013-04-18 22:50:00,
2013-04-18 18:55:00,77.0,61.1,30.02,South,191,0.0,1.0,58,0.00,,,0.00,Wunderground v.1.15,2013-04-18 22:55:00,
2013-04-18 19:00:00,76.8,61.4,30.01,South,172,0.0,1.0,59,0.00,,,0.00,Wunderground v.1.15,2013-04-18 23:00:00,
2013-04-18 19:05:00,76.7,61.3,30.01,South,173,0.0,1.0,59,0.00,,,0.00,Wunderground v.1.15,2013-04-18 23:05:00,
2013-04-18 19:10:00,76.5,61.1,30.01,South,173,0.0,1.0,59,0.00,,,0.00,Wunderground v.1.15,2013-04-18 23:10:00,
2013-04-18 19:15:00,76.4,61.5,30.01,South,173,0.0,1.0,60,0.00,,,0.00,Wunderground v.1.15,2013-04-18 23:15:00,
2013-04-18 19:25:00,76.1,63.0,30.02,South,185,0.0,1.0,64,0.00,,,0.00,Wunderground v.1.15,2013-04-18 23:25:00,
2013-04-18 19:30:00,76.0,63.4,30.02,South,187,0.0,1.0,65,0.00,,,0.00,Wunderground v.1.15,2013-04-18 23:30:00,
2013-04-18 19:40:00,75.6,63.4,30.02,South,187,0.0,1.0,66,0.00,,,0.00,Wunderground v.1.15,2013-04-18 23:40:00,
2013-04-18 19:45:00,75.5,63.3,30.02,South,187,0.0,1.0,66,0.00,,,0.00,Wunderground v.1.15,2013-04-18 23:45:00,
2013-04-18 19:55:00,74.9,63.6,30.03,South,188,0.0,1.0,68,0.00,,,0.00,Wunderground v.1.15,2013-04-18 23:55:00,
2013-04-18 20:00:00,74.7,63.4,30.03,South,188,0.0,1.0,68,0.00,,,0.00,Wunderground v.1.15,2013-04-19 00:00:00,
2013-04-18 20:10:00,74.0,63.6,30.03,South,188,0.0,1.0,70,0.00,,,0.00,Wunderground v.1.15,2013-04-19 00:10:00,
2013-04-18 20:15:00,73.7,63.3,30.03,South,176,0.0,1.0,70,0.00,,,0.00,Wunderground v.1.15,2013-04-19 00:15:00,
2013-04-18 20:20:00,73.3,63.3,30.03,South,178,0.0,1.0,71,0.00,,,0.00,Wunderground v.1.15,2013-04-19 00:20:00,
2013-04-18 20:25:00,73.1,63.1,30.03,South,178,0.0,1.0,71,0.00,,,0.00,Wunderground v.1.15,2013-04-19 00:25:00,
2013-04-18 20:30:00,72.9,62.9,30.03,South,178,0.0,1.0,71,0.00,,,0.00,Wunderground v.1.15,2013-04-19 00:30:00,
2013-04-18 20:40:00,72.4,63.3,30.03,SSE,166,0.0,1.0,73,0.00,,,0.00,Wunderground v.1.15,2013-04-19 00:40:00,
2013-04-18 20:45:00,72.2,63.1,30.03,SSE,166,0.0,1.0,73,0.00,,,0.00,Wunderground v.1.15,2013-04-19 00:45:00,
2013-04-18 20:50:00,71.9,62.8,30.03,SSE,166,0.0,1.0,73,0.00,,,0.00,Wunderground v.1.15,2013-04-19 00:50:00,
2013-04-18 20:55:00,71.7,63.0,30.03,SSE,165,0.0,1.0,74,0.00,,,0.00,Wunderground v.1.15,2013-04-19 00:55:00,
2013-04-18 21:00:00,71.4,62.7,30.03,SSE,165,0.0,1.0,74,0.00,,,0.00,Wunderground v.1.15,2013-04-19 01:00:00,
2013-04-18 21:10:00,71.0,62.7,30.03,South,175,0.0,1.0,75,0.00,,,0.00,Wunderground v.1.15,2013-04-19 01:10:00,
2013-04-18 21:15:00,70.8,62.9,30.03,South,175,0.0,1.0,76,0.00,,,0.00,Wunderground v.1.15,2013-04-19 01:15:00,
2013-04-18 21:20:00,70.6,62.7,30.03,South,175,0.0,1.0,76,0.00,,,0.00,Wunderground v.1.15,2013-04-19 01:20:00,
2013-04-18 21:25:00,70.5,62.6,30.04,South,175,0.0,1.0,76,0.00,,,0.00,Wunderground v.1.15,2013-04-19 01:25:00,
2013-04-18 21:30:00,70.3,62.7,30.04,South,175,0.0,1.0,77,0.00,,,0.00,Wunderground v.1.15,2013-04-19 01:30:00,
2013-04-18 21:35:00,70.2,63.0,30.04,South,175,0.0,1.0,78,0.00,,,0.00,Wunderground v.1.15,2013-04-19 01:35:00,
2013-04-18 21:45:00,69.9,62.7,30.04,South,187,0.0,1.0,78,0.00,,,0.00,Wunderground v.1.15,2013-04-19 01:45:00,
2013-04-18 21:50:00,69.8,63.0,30.04,South,187,0.0,1.0,79,0.00,,,0.00,Wunderground v.1.15,2013-04-19 01:50:00,
2013-04-18 21:55:00,69.7,62.9,30.03,South,187,0.0,1.0,79,0.00,,,0.00,Wunderground v.1.15,2013-04-19 01:55:00,
2013-04-18 22:00:00,69.6,62.8,30.04,South,187,0.0,1.0,79,0.00,,,0.00,Wunderground v.1.15,2013-04-19 02:00:00,
2013-04-18 22:05:00,69.4,63.0,30.03,South,187,0.0,1.0,80,0.00,,,0.00,Wunderground v.1.15,2013-04-19 02:05:00,
2013-04-18 22:15:00,69.2,62.8,30.04,South,188,0.0,1.0,80,0.00,,,0.00,Wunderground v.1.15,2013-04-19 02:15:00,
2013-04-18 22:20:00,69.1,63.0,30.04,South,188,0.0,1.0,81,0.00,,,0.00,Wunderground v.1.15,2013-04-19 02:20:00,
2013-04-18 22:25:00,69.0,63.3,30.04,South,188,0.0,1.0,82,0.00,,,0.00,Wunderground v.1.15,2013-04-19 02:25:00,
2013-04-18 22:30:00,69.0,63.3,30.04,South,188,0.0,1.0,82,0.00,,,0.00,Wunderground v.1.15,2013-04-19 02:30:00,
2013-04-18 22:35:00,69.0,63.6,30.03,South,188,0.0,1.0,83,0.00,,,0.00,Wunderground v.1.15,2013-04-19 02:35:00,
2013-04-18 22:45:00,69.0,64.0,30.03,NNW,329,0.0,1.0,84,0.00,,,0.00,Wunderground v.1.15,2013-04-19 02:45:00,
2013-04-18 22:50:00,69.0,64.0,30.03,NW,319,0.0,1.0,84,0.00,,,0.00,Wunderground v.1.15,2013-04-19 02:50:00,
2013-04-18 22:55:00,69.0,64.0,30.02,North,350,0.0,1.0,84,0.00,,,0.00,Wunderground v.1.15,2013-04-19 02:55:00,
2013-04-18 23:00:00,69.0,64.0,30.02,SSW,211,0.0,1.0,84,0.00,,,0.00,Wunderground v.1.15,2013-04-19 03:00:00,
2013-04-18 23:05:00,69.0,64.3,30.03,SSW,194,0.0,1.0,85,0.00,,,0.00,Wunderground v.1.15,2013-04-19 03:05:00,
2013-04-18 23:10:00,69.1,64.4,30.03,SSW,199,0.0,1.0,85,0.00,,,0.00,Wunderground v.1.15,2013-04-19 03:10:00,
2013-04-18 23:15:00,69.0,64.3,30.03,South,179,0.0,1.0,85,0.00,,,0.00,Wunderground v.1.15,2013-04-19 03:15:00,
2013-04-18 23:20:00,69.0,64.3,30.03,SSE,157,0.0,1.0,85,0.00,,,0.00,Wunderground v.1.15,2013-04-19 03:20:00,
2013-04-18 23:25:00,68.9,64.2,30.03,SSE,168,0.0,1.0,85,0.00,,,0.00,Wunderground v.1.15,2013-04-19 03:25:00,
2013-04-18 23:30:00,68.8,64.1,30.03,South,169,0.0,1.0,85,0.00,,,0.00,Wunderground v.1.15,2013-04-19 03:30:00,
2013-04-18 23:35:00,68.7,64.0,30.02,South,173,0.0,1.0,85,0.00,,,0.00,Wunderground v.1.15,2013-04-19 03:35:00,
2013-04-18 23:40:00,68.6,64.2,30.02,South,179,0.0,1.0,86,0.00,,,0.00,Wunderground v.1.15,2013-04-19 03:40:00,
2013-04-18 23:50:00,68.4,64.0,30.02,South,179,0.0,1.0,86,0.00,,,0.00,Wunderground v.1.15,2013-04-19 03:50:00,
2013-04-18 23:55:00,68.3,63.9,30.03,SSW,200,0.0,1.0,86,0.00,,,0.00,Wunderground v.1.15,2013-04-19 03:55:00,